TimeEDT,TemperatureF,Dew PointF,Humidity,Sea Level PressureIn,VisibilityMPH,Wind Direction,Wind SpeedMPH,Gust SpeedMPH,PrecipitationIn,Events,Conditions,WindDirDegrees,DateUTC
12:41 AM,64.4,60.8,88,29.96,0.2,Calm,Calm,-,N/A,Fog,Fog,0,2012-10-03 04:41:00
12:53 AM,64.0,61.0,90,29.94,0.2,Calm,Calm,-,N/A,Fog,Fog,0,2012-10-03 04:53:00
1:32 AM,64.4,60.8,88,29.97,0.5,Calm,Calm,-,0.01,Fog-Rain,Light Rain,0,2012-10-03 05:32:00
1:59 AM,64.4,60.8,88,29.97,1.0,Calm,Calm,-,N/A,,Mist,0,2012-10-03 05:59:00
2:07 AM,64.4,60.8,88,29.97,3.0,Calm,Calm,-,N/A,,Overcast,0,2012-10-03 06:07:00
2:31 AM,64.4,60.8,88,29.97,2.5,Calm,Calm,-,N/A,,Overcast,0,2012-10-03 06:31:00
2:39 AM,64.4,60.8,88,29.97,5.0,Calm,Calm,-,N/A,,Overcast,0,2012-10-03 06:39:00
3:42 AM,64.4,60.8,88,29.98,2.0,Calm,Calm,-,N/A,,Overcast,0,2012-10-03 07:42:00
4:45 AM,64.4,60.8,88,29.99,3.0,Calm,Calm,-,N/A,,Overcast,0,2012-10-03 08:45:00
5:00 AM,64.4,60.8,88,29.99,1.8,Calm,Calm,-,N/A,,Overcast,0,2012-10-03 09:00:00
5:25 AM,64.4,60.8,88,30.00,0.8,Calm,Calm,-,N/A,,Mist,0,2012-10-03 09:25:00
5:53 AM,64.9,61.0,87,29.99,0.8,Calm,Calm,-,N/A,,Mist,0,2012-10-03 09:53:00
6:38 AM,64.4,62.6,94,30.02,0.2,Calm,Calm,-,N/A,Fog,Fog,0,2012-10-03 10:38:00
7:17 AM,64.4,62.6,94,30.03,2.5,Calm,Calm,-,N/A,,Overcast,0,2012-10-03 11:17:00
7:28 AM,64.4,62.6,94,30.03,2.5,Calm,Calm,-,N/A,,Overcast,0,2012-10-03 11:28:00
7:42 AM,64.4,62.6,94,30.04,3.0,Calm,Calm,-,N/A,,Overcast,0,2012-10-03 11:42:00
8:53 AM,66.9,64.0,90,30.03,6.0,Calm,Calm,-,N/A,,Overcast,0,2012-10-03 12:53:00
9:05 AM,68.0,62.6,83,30.06,9.0,Calm,Calm,-,N/A,,Overcast,0,2012-10-03 13:05:00
9:53 AM,68.0,64.0,87,30.06,7.0,Variable,3.5,-,N/A,,Overcast,0,2012-10-03 13:53:00
10:53 AM,70.0,64.0,81,30.06,7.0,Calm,Calm,-,N/A,,Overcast,0,2012-10-03 14:53:00
11:44 AM,71.6,64.4,78,30.08,9.0,Calm,Calm,-,N/A,,Scattered Clouds,0,2012-10-03 15:44:00
11:53 AM,71.1,64.0,78,30.06,10.0,Calm,Calm,-,N/A,,Partly Cloudy,0,2012-10-03 15:53:00
12:53 PM,72.0,64.0,76,30.06,10.0,Calm,Calm,-,N/A,,Clear,0,2012-10-03 16:53:00
1:53 PM,75.0,64.9,71,30.05,10.0,Calm,Calm,-,N/A,,Clear,0,2012-10-03 17:53:00
2:53 PM,75.9,64.0,67,30.04,10.0,Calm,Calm,-,N/A,,Clear,0,2012-10-03 18:53:00
3:53 PM,77.0,64.0,64,30.05,10.0,Calm,Calm,-,N/A,,Clear,0,2012-10-03 19:53:00
4:53 PM,75.9,66.0,71,30.05,10.0,Calm,Calm,-,N/A,,Clear,0,2012-10-03 20:53:00
5:53 PM,73.0,66.0,79,30.07,10.0,Calm,Calm,-,N/A,,Clear,0,2012-10-03 21:53:00
6:53 PM,71.1,64.9,81,30.08,10.0,Calm,Calm,-,N/A,,Clear,0,2012-10-03 22:53:00
7:53 PM,69.1,64.9,87,30.09,7.0,Calm,Calm,-,N/A,,Clear,0,2012-10-03 23:53:00
8:53 PM,69.1,64.0,84,30.10,7.0,Calm,Calm,-,0.01,,Clear,0,2012-10-04 00:53:00
9:53 PM,68.0,63.0,84,30.11,6.0,Calm,Calm,-,N/A,,Haze,0,2012-10-04 01:53:00
10:53 PM,68.0,63.0,84,30.11,6.0,Calm,Calm,-,N/A,,Haze,0,2012-10-04 02:53:00
11:53 PM,68.0,63.0,84,30.11,7.0,Calm,Calm,-,N/A,,Clear,0,2012-10-04 03:53:00